Home   Weather   Juneau   Past weeks

Flag for USA Past Weather in Juneau, Alaska, USA — Yesterday and Last 2 Weeks

37 °F

Mostly cloudy.

Feels Like: 37 °F
Forecast: 31 / 40 °F
Wind: No wind

Location: Juneau International Airport

Current Time: Oct 26, 2016 at 11:19:05 PM

Latest Report: Oct 26, 2016 at 10:53 PM

Visibility: 10 mi

Pressure: 29.67 "Hg

Humidity: 100%

Dew Point: 37 °F

Location of JuneauLocation

Past Weather in Juneau — Graph


Juneau Temperature Yesterday

Maximum temperature yesterday: 51 °F (at 1:53 PM)
Minimum temperature yesterday: 30 °F (at 11:53 PM)
Average temperature yesterday: 41 °F

High & Low Weather Summary for the Past Weeks

High54 °F (Oct 13, 12:53 PM)100% (Oct 15, 11:57 PM)30.07 "Hg (Oct 15, 11:57 PM)
Low25 °F (Oct 12, 7:53 AM)29% (Oct 13, 12:53 PM)29.18 "Hg (Oct 16, 2:53 AM)
Average40 °F83%29.61 "Hg
* Reported Oct 11 9:53 PM — Oct 26 9:53 PM, Juneau, Weather by CustomWeather, © 2016

Note: Actual official high and low records may vary slightly from our data, if they occured in-between our weather recording intervals... More about our weather records


Juneau Weather History for the Previous 24 Hours

Scroll right to see more
Time TempWeatherWind HumidityBarometerVisibility
9:53 PM
Wed, Oct 26
38 °FMostly cloudy.No wind97%29.70 "Hg10 mi
8:53 PM38 °FMostly cloudy.3 mph93%29.72 "Hg10 mi
7:53 PM38 °FLight rain. Mostly cloudy.No wind97%29.73 "Hg10 mi
6:53 PM39 °FMostly cloudy.No wind89%29.75 "Hg10 mi
5:53 PM39 °FLight rain. Mostly cloudy.3 mph89%29.77 "Hg10 mi
4:53 PM40 °FMostly cloudy.No wind86%29.78 "Hg10 mi
3:53 PM40 °FLight rain. Mostly cloudy.3 mph80%29.80 "Hg10 mi
2:53 PM41 °FMostly cloudy.No wind70%29.83 "Hg10 mi
1:53 PM41 °FMore clouds than sun.No wind74%29.85 "Hg10 mi
12:53 PM40 °FPartly sunny.No wind80%29.86 "Hg10 mi
11:53 AM41 °FScattered clouds.No wind74%29.86 "Hg10 mi
10:53 AM38 °FPassing clouds.No wind79%29.87 "Hg10 mi
9:53 AM33 °FPassing clouds.No wind92%29.88 "Hg10 mi
8:53 AM28 °FPassing clouds.No wind96%29.88 "Hg9 mi
7:53 AM28 °FFog.No wind93%29.89 "Hg10 mi
6:53 AM27 °FPassing clouds.No wind92%29.90 "Hg10 mi
5:53 AM28 °FClear.No wind89%29.90 "Hg10 mi
4:53 AM29 °FClear.No wind89%29.91 "Hg10 mi
3:53 AM28 °FClear.No wind93%29.91 "Hg10 mi
2:53 AM30 °FClear.No wind89%29.93 "Hg10 mi
1:53 AM29 °FClear.No wind93%29.93 "Hg10 mi
12:53 AM31 °FClear.No wind89%29.93 "Hg10 mi
11:53 PM
Tue, Oct 25
30 °FClear.No wind89%29.93 "Hg10 mi
Weather by CustomWeather, © 2016

See weather overviewHow to use our weather pages